• In Portugal
  • List of Countries
  • For 7 days
  • Water Temperature
  • Satellite Maps
  • Weather Map
  • Weather Widgets
  • user-avatar
    Login

    Hourly Weather Mörön

    Today, 22 September, Saturday

    Time Temperature Precipitation Wind Pressure Humidity
    00:00 -1°C° 0 mm 2 mps 622 mmHg 47%
    01:00 -1°C° 0 mm 2 mps 622 mmHg 47%
    02:00 -1°C° 0 mm 2 mps 622 mmHg 47%
    03:00 -2°C° 0 mm 2 mps 622 mmHg 47%
    04:00 0°C° 0 mm 1 mps 623 mmHg 47%
    05:00 0°C° 0 mm 1 mps 623 mmHg 47%
    06:00 +1°C° 0 mm 1 mps 623 mmHg 46%
    07:00 +1°C° 0 mm 1 mps 624 mmHg 45%
    08:00 +3°C° 0 mm 1 mps 624 mmHg 41%
    09:00 +5°C° 0 mm 1 mps 624 mmHg 36%
    10:00 +7°C° 0 mm 1 mps 624 mmHg 32%
    11:00 +9°C° 0 mm 1 mps 624 mmHg 30%
    12:00 +10°C° 0 mm 1 mps 624 mmHg 28%
    13:00 +11°C° 0 mm 1 mps 625 mmHg 27%
    14:00 +11°C° 0 mm 1 mps 624 mmHg 27%
    15:00 +12°C° 0 mm 1 mps 624 mmHg 27%
    16:00 +12°C° 0 mm 1 mps 624 mmHg 27%
    17:00 +10°C° 0 mm 1 mps 624 mmHg 32%
    18:00 +8°C° 0 mm 1 mps 623 mmHg 37%
    19:00 +6°C° 0 mm 1 mps 623 mmHg 42%
    20:00 +5°C° 0 mm 1 mps 623 mmHg 44%
    21:00 +5°C° 0 mm 1 mps 623 mmHg 45%
    22:00 +4°C° 0 mm 1 mps 623 mmHg 47%
    23:00 +4°C° 0 mm 1 mps 623 mmHg 48%

    Tomorrow, 23 September, Sunday

    Time Temperature Precipitation Wind Pressure Humidity
    00:00 +3°C° 0 mm 1 mps 622 mmHg 48%
    01:00 +3°C° 0 mm 1 mps 622 mmHg 49%
    02:00 +3°C° 0 mm 1 mps 622 mmHg 49%
    03:00 +3°C° 0 mm 1 mps 622 mmHg 49%
    04:00 +3°C° 0 mm 1 mps 621 mmHg 49%
    05:00 +3°C° 0 mm 1 mps 622 mmHg 49%
    06:00 +3°C° 0 mm 1 mps 622 mmHg 48%
    07:00 +4°C° 0 mm 1 mps 622 mmHg 48%
    08:00 +6°C° 0 mm 1 mps 622 mmHg 43%
    09:00 +8°C° 0 mm 1 mps 622 mmHg 38%
    10:00 +10°C° 0 mm 1 mps 623 mmHg 33%
    11:00 +12°C° 0 mm 2 mps 623 mmHg 31%
    12:00 +13°C° 0 mm 2 mps 623 mmHg 30%
    13:00 +15°C° 0 mm 2 mps 623 mmHg 28%
    14:00 +15°C° 0 mm 2 mps 623 mmHg 29%
    15:00 +15°C° 0 mm 2 mps 622 mmHg 30%
    16:00 +16°C° 0 mm 2 mps 622 mmHg 31%
    17:00 +14°C° 0.1 mm 2 mps 622 mmHg 39%
    18:00 +12°C° 0.1 mm 2 mps 621 mmHg 47%
    19:00 +9°C° 0.1 mm 2 mps 621 mmHg 54%
    20:00 +8°C° 0 mm 2 mps 621 mmHg 58%
    21:00 +9°C° 0 mm 1 mps 621 mmHg 62%
    22:00 +8°C° 0 mm 1 mps 621 mmHg 66%
    23:00 +8°C° 0 mm 1 mps 620 mmHg 67%

    Day after tomorrow, 24 September, Monday

    Time Temperature Precipitation Wind Pressure Humidity
    00:00 +7°C° 0 mm 1 mps 620 mmHg 68%
    01:00 +7°C° 0 mm 1 mps 620 mmHg 69%
    02:00 +7°C° 0 mm 1 mps 619 mmHg 69%
    03:00 +6°C° 0 mm 1 mps 619 mmHg 69%
    04:00 +6°C° 0 mm 1 mps 619 mmHg 69%
    05:00 +6°C° 0 mm 1 mps 619 mmHg 68%
    06:00 +7°C° 0 mm 1 mps 619 mmHg 68%
    07:00 +7°C° 0 mm 1 mps 620 mmHg 67%
    08:00 +9°C° 0 mm 1 mps 620 mmHg 60%
    09:00 +10°C° 0 mm 1 mps 620 mmHg 54%
    10:00 +12°C° 0 mm 1 mps 620 mmHg 47%
    11:00 +13°C° 0 mm 1 mps 620 mmHg 43%
    12:00 +14°C° 0 mm 1 mps 620 mmHg 39%
    13:00 +16°C° 0 mm 1 mps 620 mmHg 35%
    14:00 +16°C° 0 mm 1 mps 620 mmHg 35%
    15:00 +16°C° 0 mm 1 mps 620 mmHg 35%
    16:00 +16°C° 0 mm 1 mps 619 mmHg 35%
    17:00 +14°C° 0.2 mm 1 mps 619 mmHg 42%
    18:00 +13°C° 0.2 mm 1 mps 619 mmHg 48%
    19:00 +11°C° 0.2 mm 1 mps 619 mmHg 54%
    20:00 +10°C° 0.2 mm 1 mps 618 mmHg 58%
    21:00 +9°C° 0.2 mm 1 mps 618 mmHg 62%
    22:00 +9°C° 0.2 mm 1 mps 618 mmHg 66%
    23:00 +8°C° 0 mm 1 mps 618 mmHg 67%

    25 September, Tuesday

    Time Temperature Precipitation Wind Pressure Humidity
    00:00 +8°C° 0 mm 1 mps 618 mmHg 68%
    01:00 +7°C° 0 mm 1 mps 617 mmHg 70%
    02:00 +7°C° 0 mm 1 mps 617 mmHg 70%
    03:00 +7°C° 0 mm 1 mps 617 mmHg 70%
    04:00 +6°C° 0 mm 1 mps 617 mmHg 69%
    05:00 +6°C° 0 mm 1 mps 617 mmHg 69%
    06:00 +5°C° 0 mm 0 mps 617 mmHg 69%
    07:00 +5°C° 0 mm 0 mps 617 mmHg 69%
    08:00 +7°C° 0 mm 0 mps 617 mmHg 64%
    09:00 +8°C° 0 mm 0 mps 618 mmHg 59%
    10:00 +10°C° 0 mm 1 mps 618 mmHg 54%
    11:00 +11°C° 0 mm 1 mps 618 mmHg 51%
    12:00 +11°C° 0 mm 1 mps 618 mmHg 49%
    13:00 +12°C° 0 mm 1 mps 618 mmHg 46%
    14:00 +12°C° 0 mm 1 mps 618 mmHg 46%
    15:00 +11°C° 0 mm 0 mps 618 mmHg 46%
    16:00 +11°C° 0 mm 0 mps 618 mmHg 46%
    17:00 +11°C° 0 mm 1 mps 617 mmHg 51%
    18:00 +9°C° 0 mm 1 mps 617 mmHg 57%
    19:00 +8°C° 0 mm 1 mps 617 mmHg 62%
    20:00 +8°C° 0 mm 1 mps 617 mmHg 64%
    21:00 +6°C° 0 mm 0 mps 617 mmHg 66%
    22:00 +6°C° 0 mm 0 mps 617 mmHg 68%
    23:00 +6°C° 0 mm 0 mps 617 mmHg 70%

    26 September, Wednesday

    Time Temperature Precipitation Wind Pressure Humidity
    00:00 +7°C° 0 mm 1 mps 617 mmHg 72%
    01:00 +6°C° 0 mm 1 mps 617 mmHg 73%
    02:00 +6°C° 0 mm 1 mps 617 mmHg 76%
    03:00 +6°C° 0 mm 1 mps 617 mmHg 78%
    04:00 +5°C° 0 mm 1 mps 617 mmHg 80%
    05:00 +5°C° 0.1 mm 1 mps 617 mmHg 82%
    06:00 +5°C° 0.1 mm 1 mps 618 mmHg 83%
    07:00 +4°C° 0.1 mm 2 mps 618 mmHg 85%
    08:00 +4°C° 0.8 mm 2 mps 618 mmHg 84%
    09:00 +5°C° 0.8 mm 2 mps 618 mmHg 83%
    10:00 +5°C° 0.8 mm 2 mps 619 mmHg 83%
    11:00 +4°C° 1 mm 3 mps 619 mmHg 84%
    12:00 +4°C° 1 mm 3 mps 619 mmHg 86%
    13:00 +4°C° 1 mm 3 mps 619 mmHg 88%
    14:00 +4°C° 0.7 mm 3 mps 619 mmHg 88%
    15:00 +4°C° 0.7 mm 4 mps 619 mmHg 88%
    16:00 +4°C° 0.7 mm 4 mps 620 mmHg 88%
    17:00 +3°C° 0.4 mm 3 mps 620 mmHg 89%
    18:00 +3°C° 0.4 mm 3 mps 621 mmHg 90%
    19:00 +3°C° 0.4 mm 3 mps 621 mmHg 91%
    20:00 +4°C° 0.2 mm 2 mps 622 mmHg 91%
    21:00 +3°C° 0.2 mm 2 mps 622 mmHg 91%
    22:00 +3°C° 0.2 mm 2 mps 622 mmHg 91%
    23:00 +3°C° 0.1 mm 2 mps 623 mmHg 91%

    27 September, Thursday

    Time Temperature Precipitation Wind Pressure Humidity
    00:00 +2°C° 0.1 mm 2 mps 623 mmHg 90%
    01:00 +2°C° 0.1 mm 2 mps 623 mmHg 90%
    02:00 +2°C° 0 mm 2 mps 623 mmHg 90%
    03:00 +1°C° 0 mm 2 mps 623 mmHg 90%
    04:00 +1°C° 0 mm 2 mps 623 mmHg 89%
    05:00 -1°C° 0 mm 2 mps 623 mmHg 89%
    06:00 -1°C° 0 mm 2 mps 624 mmHg 88%
    07:00 -1°C° 0 mm 2 mps 624 mmHg 88%
    08:00 +2°C° 0 mm 2 mps 624 mmHg 82%
    09:00 +2°C° 0 mm 3 mps 624 mmHg 76%
    10:00 +4°C° 0 mm 3 mps 625 mmHg 70%
    11:00 +5°C° 0 mm 3 mps 625 mmHg 66%
    12:00 +6°C° 0 mm 4 mps 625 mmHg 62%
    13:00 +7°C° 0 mm 4 mps 625 mmHg 58%
    14:00 +7°C° 0 mm 4 mps 625 mmHg 58%
    15:00 +7°C° 0 mm 4 mps 625 mmHg 58%
    16:00 +7°C° 0 mm 4 mps 625 mmHg 58%
    17:00 +5°C° 0 mm 4 mps 625 mmHg 64%
    18:00 +4°C° 0 mm 3 mps 626 mmHg 71%
    19:00 +2°C° 0 mm 3 mps 626 mmHg 78%
    20:00 +2°C° 0 mm 3 mps 626 mmHg 80%
    21:00 +1°C° 0 mm 3 mps 626 mmHg 82%
    22:00 +1°C° 0 mm 3 mps 627 mmHg 83%
    23:00 +1°C° 0 mm 2 mps 627 mmHg 84%
    Show more